timestamp,wind_dir_avg,wind_spd_avg,wind_spd_max_dir,wind_spd_gust,battery_voltage,lat,long
2023-02-26 00:04:00+00:00,345.0,9.76,344.0,11.44,12.25,47.59359,-54.27349
2023-02-26 00:14:00+00:00,348.0,9.93,334.0,11.37,12.25,47.59359,-54.27349
2023-02-26 00:24:00+00:00,352.0,9.13,343.0,11.11,12.25,47.59359,-54.27349
2023-02-26 00:34:00+00:00,348.0,10.18,342.0,12.61,12.25,47.59359,-54.27349
2023-02-26 00:44:00+00:00,339.0,10.35,333.0,13.48,12.25,47.59359,-54.27349
2023-02-26 00:54:00+00:00,339.0,11.52,334.0,14.0,12.25,47.59359,-54.27349
2023-02-26 01:04:00+00:00,338.0,12.28,337.0,14.4,12.25,47.59359,-54.27349
2023-02-26 01:14:00+00:00,336.0,10.68,331.0,12.99,12.17,47.59359,-54.27349
2023-02-26 01:24:00+00:00,334.0,11.4,340.0,13.16,12.17,47.59359,-54.27349
2023-02-26 01:34:00+00:00,331.0,10.79,337.0,12.73,12.17,47.59359,-54.27349
2023-02-26 01:44:00+00:00,335.0,10.73,334.0,13.25,12.17,47.59359,-54.27349
2023-02-26 01:54:00+00:00,333.0,11.25,329.0,12.86,12.17,47.59359,-54.27349
2023-02-26 02:04:00+00:00,333.0,11.01,330.0,12.74,12.17,47.59359,-54.27349
2023-02-26 02:14:01+00:00,328.0,10.47,336.0,12.43,12.09,47.59359,-54.27349
2023-02-26 02:24:01+00:00,333.0,11.09,339.0,13.12,12.09,47.59359,-54.27349
2023-02-26 02:34:01+00:00,333.0,10.76,334.0,13.95,12.09,47.59359,-54.27349
2023-02-26 02:44:01+00:00,329.0,10.94,331.0,12.25,12.09,47.59359,-54.27349
2023-02-26 02:54:01+00:00,331.0,11.21,339.0,14.09,12.09,47.59359,-54.27349
2023-02-26 03:04:01+00:00,329.0,10.36,327.0,11.95,12.09,47.59359,-54.27349
2023-02-26 03:14:00+00:00,330.0,10.22,333.0,11.72,12.09,47.59359,-54.27349
2023-02-26 03:24:00+00:00,333.0,11.05,337.0,12.43,12.09,47.59359,-54.27349
2023-02-26 03:34:00+00:00,329.0,10.14,336.0,12.66,12.09,47.59359,-54.27349
2023-02-26 03:44:00+00:00,330.0,9.98,335.0,11.78,12.09,47.59359,-54.27349
2023-02-26 03:54:00+00:00,330.0,10.66,336.0,12.05,12.09,47.59359,-54.27349
2023-02-26 04:04:00+00:00,332.0,10.39,335.0,12.52,12.09,47.59359,-54.27349
2023-02-26 04:14:01+00:00,331.0,10.37,334.0,12.25,12.01,47.59359,-54.27349
2023-02-26 04:24:01+00:00,331.0,10.78,335.0,12.74,12.01,47.59359,-54.27349
2023-02-26 04:34:01+00:00,330.0,11.25,334.0,13.08,12.01,47.59359,-54.27349
2023-02-26 04:44:01+00:00,338.0,10.72,335.0,12.73,12.01,47.59359,-54.27349
2023-02-26 04:54:01+00:00,328.0,10.91,333.0,14.54,12.01,47.59359,-54.27349
2023-02-26 05:04:01+00:00,333.0,11.48,326.0,13.56,12.01,47.59359,-54.27349
2023-02-26 05:14:00+00:00,332.0,11.02,329.0,13.53,11.93,47.59359,-54.27349
2023-02-26 05:24:00+00:00,329.0,10.5,325.0,13.45,11.93,47.59359,-54.27349
2023-02-26 05:34:00+00:00,329.0,11.75,325.0,15.0,11.93,47.59359,-54.27349
2023-02-26 05:44:00+00:00,334.0,10.78,325.0,14.56,11.93,47.59359,-54.27349
2023-02-26 05:54:00+00:00,335.0,10.68,336.0,12.5,11.93,47.59359,-54.27349
2023-02-26 06:04:00+00:00,333.0,10.84,322.0,12.79,11.93,47.59359,-54.27349
2023-02-26 06:14:00+00:00,327.0,10.55,323.0,12.55,11.93,47.59359,-54.27349
2023-02-26 06:24:00+00:00,331.0,9.41,322.0,11.76,11.93,47.59359,-54.27349
2023-02-26 06:34:00+00:00,334.0,11.4,323.0,13.82,11.93,47.59359,-54.27349
2023-02-26 06:44:00+00:00,332.0,11.13,324.0,13.74,11.93,47.59359,-54.27349
2023-02-26 06:54:00+00:00,329.0,10.15,316.0,12.37,11.93,47.59359,-54.27349
2023-02-26 07:04:00+00:00,321.0,10.11,315.0,12.2,11.93,47.59359,-54.27349
2023-02-26 07:14:00+00:00,334.0,9.91,316.0,12.28,11.86,47.59359,-54.27349
2023-02-26 07:24:00+00:00,330.0,8.21,313.0,12.93,11.86,47.59359,-54.27349
2023-02-26 07:34:00+00:00,326.0,9.38,313.0,12.65,11.86,47.59359,-54.27349
2023-02-26 07:44:00+00:00,326.0,9.15,316.0,11.7,11.86,47.59359,-54.27349
2023-02-26 07:54:00+00:00,323.0,8.75,310.0,11.49,11.86,47.59359,-54.27349
2023-02-26 08:04:00+00:00,322.0,9.33,312.0,12.25,11.86,47.59359,-54.27349
2023-02-26 08:14:00+00:00,326.0,8.54,313.0,10.98,11.86,47.59359,-54.27349
2023-02-26 08:24:00+00:00,321.0,9.95,314.0,12.72,11.86,47.59359,-54.27349
2023-02-26 08:34:00+00:00,314.0,11.06,320.0,13.89,11.86,47.59359,-54.27349
2023-02-26 08:44:00+00:00,317.0,10.13,314.0,13.17,11.86,47.59359,-54.27349
2023-02-26 08:54:00+00:00,316.0,10.87,313.0,12.87,11.86,47.59359,-54.27349
2023-02-26 09:04:00+00:00,325.0,10.23,319.0,13.63,11.86,47.59359,-54.27349
2023-02-26 09:14:00+00:00,325.0,9.16,313.0,11.51,11.86,47.59359,-54.27349
2023-02-26 09:24:00+00:00,324.0,8.95,308.0,11.27,11.86,47.59359,-54.27349
2023-02-26 09:34:00+00:00,332.0,7.8,308.0,10.44,11.86,47.59359,-54.27349
2023-02-26 09:44:00+00:00,350.0,6.74,330.0,11.62,11.86,47.59359,-54.27349
2023-02-26 09:54:00+00:00,338.0,6.85,325.0,8.64,11.86,47.59359,-54.27349
2023-02-26 10:04:00+00:00,326.0,6.86,303.0,10.05,11.86,47.59359,-54.27349
2023-02-26 10:14:00+00:00,321.0,6.64,306.0,10.82,11.86,47.59359,-54.27349
2023-02-26 10:24:00+00:00,346.0,5.78,354.0,7.19,11.86,47.59359,-54.27349
2023-02-26 10:34:00+00:00,325.0,7.63,308.0,11.18,11.86,47.59359,-54.27349
2023-02-26 10:44:00+00:00,333.0,6.9,322.0,9.89,11.86,47.59359,-54.27349
2023-02-26 10:54:00+00:00,324.0,9.16,311.0,11.31,11.86,47.59359,-54.27349
2023-02-26 11:04:00+00:00,342.0,6.92,332.0,9.26,11.86,47.59359,-54.27349
2023-02-26 11:14:00+00:00,342.0,7.03,329.0,8.92,12.73,47.59359,-54.27349
2023-02-26 11:24:00+00:00,342.0,6.47,347.0,8.4,12.73,47.59359,-54.27349
2023-02-26 11:34:00+00:00,341.0,5.6,344.0,7.29,12.73,47.59359,-54.27349
2023-02-26 11:44:00+00:00,340.0,5.41,341.0,6.41,12.73,47.59359,-54.27349
2023-02-26 11:54:00+00:00,333.0,6.65,336.0,8.93,12.73,47.59359,-54.27349
2023-02-26 12:04:00+00:00,342.0,7.14,333.0,8.87,12.73,47.59359,-54.27349
2023-02-26 12:14:00+00:00,342.0,6.11,333.0,8.21,13.76,47.59359,-54.27349
2023-02-26 12:24:00+00:00,338.0,5.56,340.0,6.51,13.76,47.59359,-54.27349
2023-02-26 12:34:00+00:00,325.0,7.41,324.0,9.69,13.76,47.59359,-54.27349
2023-02-26 12:44:00+00:00,327.0,5.75,320.0,7.32,13.76,47.59359,-54.27349
2023-02-26 12:54:00+00:00,347.0,6.2,344.0,7.92,13.76,47.59359,-54.27349
2023-02-26 13:04:00+00:00,333.0,5.99,320.0,8.7,13.76,47.59359,-54.27349
2023-02-26 13:14:00+00:00,334.0,5.29,324.0,7.3,13.68,47.59359,-54.27349
2023-02-26 13:24:00+00:00,351.0,6.3,357.0,7.59,13.68,47.59359,-54.27349
2023-02-26 13:34:00+00:00,341.0,5.04,319.0,7.89,13.68,47.59359,-54.27349
2023-02-26 13:44:00+00:00,341.0,8.83,341.0,10.57,13.68,47.59359,-54.27349
2023-02-26 13:54:00+00:00,330.0,7.52,328.0,9.34,13.68,47.59359,-54.27349
2023-02-26 14:04:00+00:00,332.0,7.08,321.0,9.1,13.68,47.59359,-54.27349
2023-02-26 14:14:00+00:00,334.0,9.0,328.0,11.08,14.32,47.59359,-54.27349
2023-02-26 14:24:00+00:00,329.0,7.83,328.0,10.8,14.32,47.59359,-54.27349
2023-02-26 14:34:00+00:00,331.0,9.87,331.0,11.31,14.32,47.59359,-54.27349
2023-02-26 14:44:00+00:00,339.0,10.16,336.0,12.64,14.32,47.59359,-54.27349
2023-02-26 14:54:00+00:00,340.0,9.63,334.0,13.29,14.32,47.59359,-54.27349
2023-02-26 15:04:00+00:00,329.0,10.68,312.0,14.18,14.32,47.59359,-54.27349
2023-02-26 15:14:00+00:00,328.0,9.07,323.0,10.5,14.32,47.59359,-54.27349
2023-02-26 15:24:00+00:00,318.0,9.52,320.0,10.85,14.32,47.59359,-54.27349
2023-02-26 15:34:00+00:00,314.0,11.95,307.0,15.5,14.32,47.59359,-54.27349
2023-02-26 15:44:00+00:00,309.0,10.91,303.0,15.98,14.32,47.59359,-54.27349
2023-02-26 15:54:00+00:00,319.0,11.0,306.0,14.14,14.32,47.59359,-54.27349
2023-02-26 16:04:00+00:00,319.0,9.97,313.0,12.78,14.32,47.59359,-54.27349
2023-02-26 16:14:01+00:00,313.0,10.94,302.0,14.94,14.4,47.59359,-54.27349
2023-02-26 16:24:01+00:00,324.0,10.06,308.0,13.36,14.4,47.59359,-54.27349
2023-02-26 16:34:01+00:00,316.0,8.9,316.0,10.91,14.4,47.59359,-54.27349
2023-02-26 16:44:01+00:00,315.0,8.35,314.0,9.58,14.4,47.59359,-54.27349
2023-02-26 16:54:01+00:00,314.0,8.89,308.0,10.4,14.4,47.59359,-54.27349
2023-02-26 17:04:01+00:00,317.0,9.45,321.0,11.65,14.4,47.59359,-54.27349
2023-02-26 17:14:01+00:00,330.0,9.32,330.0,10.95,14.56,47.59359,-54.27349
2023-02-26 17:24:01+00:00,311.0,9.11,303.0,13.53,14.56,47.59359,-54.27349
2023-02-26 17:34:01+00:00,331.0,8.97,323.0,11.39,14.56,47.59359,-54.27349
2023-02-26 17:44:01+00:00,329.0,8.73,331.0,10.19,14.56,47.59359,-54.27349
2023-02-26 17:54:01+00:00,335.0,9.46,330.0,11.73,14.56,47.59359,-54.27349
2023-02-26 18:04:01+00:00,307.0,7.23,316.0,10.32,14.56,47.59359,-54.27349
2023-02-26 19:14:00+00:00,322.0,9.23,321.0,10.54,14.32,47.59359,-54.27349
2023-02-26 19:24:00+00:00,299.0,11.03,302.0,12.29,14.32,47.59359,-54.27349
2023-02-26 19:34:00+00:00,307.0,9.21,306.0,11.49,14.32,47.59359,-54.27349
2023-02-26 19:44:00+00:00,325.0,8.57,328.0,9.77,14.32,47.59359,-54.27349
2023-02-26 19:54:00+00:00,332.0,10.44,331.0,13.66,14.32,47.59359,-54.27349
2023-02-26 20:04:00+00:00,316.0,9.38,312.0,11.57,14.32,47.59359,-54.27349
2023-02-26 20:14:00+00:00,309.0,8.49,317.0,11.87,13.53,47.59359,-54.27349
2023-02-26 20:24:00+00:00,320.0,8.87,311.0,11.36,13.53,47.59359,-54.27349
2023-02-26 20:34:00+00:00,317.0,9.49,311.0,11.19,13.53,47.59359,-54.27349
2023-02-26 20:44:00+00:00,319.0,7.85,314.0,10.02,13.53,47.59359,-54.27349
2023-02-26 20:54:00+00:00,323.0,8.52,325.0,10.27,13.53,47.59359,-54.27349
2023-02-26 21:04:00+00:00,308.0,8.51,310.0,10.17,13.53,47.59359,-54.27349
2023-02-26 21:14:01+00:00,315.0,8.98,304.0,11.82,13.29,47.59359,-54.27349
2023-02-26 21:24:01+00:00,313.0,7.87,305.0,11.19,13.29,47.59359,-54.27349
2023-02-26 21:34:01+00:00,323.0,8.83,324.0,11.7,13.29,47.59359,-54.27349
2023-02-26 21:44:01+00:00,321.0,8.57,312.0,11.8,13.29,47.59359,-54.27349
2023-02-26 21:54:01+00:00,327.0,8.31,304.0,10.71,13.29,47.59359,-54.27349
2023-02-26 22:04:01+00:00,317.0,7.3,302.0,10.31,13.29,47.59359,-54.27349
2023-02-26 22:14:00+00:00,322.0,7.96,325.0,9.26,12.49,47.59359,-54.27349
2023-02-26 22:24:00+00:00,318.0,6.83,310.0,8.63,12.49,47.59359,-54.27349
2023-02-26 22:34:00+00:00,330.0,6.56,332.0,8.91,12.49,47.59359,-54.27349
2023-02-26 22:44:00+00:00,320.0,7.45,308.0,9.78,12.49,47.59359,-54.27349
2023-02-26 22:54:00+00:00,328.0,6.94,335.0,9.04,12.49,47.59359,-54.27349
2023-02-26 23:04:00+00:00,325.0,8.18,329.0,9.71,12.49,47.59359,-54.27349
2023-02-26 23:14:00+00:00,322.0,8.44,321.0,9.96,12.33,47.59359,-54.27349
2023-02-26 23:24:00+00:00,329.0,7.72,336.0,9.25,12.33,47.59359,-54.27349
2023-02-26 23:34:00+00:00,325.0,7.77,335.0,9.14,12.33,47.59359,-54.27349
2023-02-26 23:44:00+00:00,315.0,8.08,308.0,10.02,12.33,47.59359,-54.27349
2023-02-26 23:54:00+00:00,319.0,6.84,327.0,8.19,12.33,47.59359,-54.27349
